Weather History for Millington, TN

Change the Weather History Date:

Wednesday, October 17, 2012

  Actual Average Record
Temperature  
Mean Temperature 68 °F -  
Max Temperature 80 °F 72 °F 86 °F (2010)
Min Temperature 57 °F 50 °F 33 °F (2001)
Cooling Degree Days 4    
Growing Degree Days 18 (Base 50)    
Moisture  
Dew Point 58 °F    
Average Humidity 75    
Maximum Humidity 94    
Minimum Humidity 54    
Precipitation  
Precipitation 0.00 in - - ()
Sea Level Pressure  
Sea Level Pressure 29.69 in    
Wind  
Wind Speed 8 mph (SSE)    
Max Wind Speed 18 mph    
Max Gust Speed 23 mph    
Visibility 10 miles    
Events Rain , Thunderstorm    
Averages and records for this station are not official NWS values.
T = Trace of Precipitation, MM = Missing Value Source: NWS Daily Summary

Daily Weather History Graph

Daily Weather History Graph

Search for Another Location

Airport:

Trip Planner

Search our weather history database for the weather conditions in past years. The results will help you decide how hot, cold, wet, or windy it might be!

Date:

Astronomy

Oct. 17, 2012 Rise Set
Actual Time 7:07 AM CDT 6:21 PM CDT
Civil Twilight 6:42 AM CDT 6:46 PM CDT
Nautical Twilight 6:12 AM CDT 7:16 PM CDT
Astronomical Twilight 5:43 AM CDT 7:45 PM CDT
Moon 9:35 AM CDT (10/17) 8:03 PM CDT (10/17)
Length of Visible Light 12h 04m
Length of Day
11h 13m
Waxing Crescent, 7% of the Moon is Illuminated
Oct 17
Waxing Crescent
Oct 21
First Quarter
Oct 29
Full
Nov 6
Last Quarter
Nov 13
New

Hourly Weather History & Observations

Time (CDT) Temp. Heat Index Dew Point Humidity Pressure Visibility Wind Dir Wind Speed Gust Speed Precip Events Conditions
12:55 AM 57.2 °F - 53.6 °F 88% 29.81 in 10.0 mi SE 4.6 mph - N/A   Clear
1:55 AM 57.2 °F - 53.6 °F 88% 29.81 in 10.0 mi SE 4.6 mph - N/A   Partly Cloudy
2:15 AM 57.2 °F - 55.4 °F 94% 29.80 in 10.0 mi SSE 5.8 mph - N/A   Scattered Clouds
2:35 AM 57.2 °F - 55.4 °F 94% 29.80 in 10.0 mi SE 4.6 mph - N/A   Clear
2:55 AM 57.2 °F - 55.4 °F 94% 29.80 in 10.0 mi SE 3.5 mph - N/A   Clear
3:15 AM 57.2 °F - 55.4 °F 94% 29.79 in 10.0 mi SE 5.8 mph - N/A   Clear
3:35 AM 57.2 °F - 55.4 °F 94% 29.78 in 10.0 mi SE 8.1 mph - N/A   Scattered Clouds
3:55 AM 57.2 °F - 55.4 °F 94% 29.78 in 10.0 mi SSE 4.6 mph - N/A   Mostly Cloudy
4:55 AM 60.8 °F - 53.6 °F 77% 29.76 in 10.0 mi SSE 5.8 mph - N/A   Overcast
5:55 AM 62.6 °F - 53.6 °F 72% 29.75 in 10.0 mi SSE 8.1 mph - N/A   Overcast
6:55 AM 62.6 °F - 51.8 °F 68% 29.75 in 10.0 mi SSE 9.2 mph - N/A   Mostly Cloudy
7:55 AM 62.6 °F - 51.8 °F 68% 29.75 in 10.0 mi SSE 8.1 mph - N/A   Mostly Cloudy
8:55 AM 66.2 °F - 51.8 °F 60% 29.75 in 10.0 mi SSE 9.2 mph - N/A   Scattered Clouds
9:55 AM 69.8 °F - 53.6 °F 56% 29.74 in 10.0 mi SSE 9.2 mph - N/A   Scattered Clouds
10:55 AM 73.4 °F - 57.2 °F 57% 29.72 in 10.0 mi SSE 12.7 mph - N/A   Scattered Clouds
11:55 AM 75.2 °F - 60.8 °F 61% 29.71 in 10.0 mi SSE 8.1 mph - N/A   Scattered Clouds
12:55 PM 78.8 °F - 60.8 °F 54% 29.67 in 10.0 mi South 13.8 mph - N/A   Scattered Clouds
1:55 PM 80.6 °F 81.8 °F 62.6 °F 54% 29.64 in 10.0 mi South 12.7 mph 23.0 mph N/A   Scattered Clouds
2:55 PM 80.6 °F 81.8 °F 62.6 °F 54% 29.61 in 10.0 mi South 15.0 mph - N/A   Scattered Clouds
3:55 PM 80.6 °F 81.8 °F 62.6 °F 54% 29.58 in 10.0 mi SSE 11.5 mph 21.9 mph N/A   Mostly Cloudy
4:55 PM 78.8 °F - 62.6 °F 57% 29.58 in 10.0 mi SSE 12.7 mph - N/A   Overcast
5:55 PM 75.2 °F - 62.6 °F 65% 29.57 in 10.0 mi SSE 15.0 mph - N/A   Mostly Cloudy
6:55 PM 75.2 °F - 62.6 °F 65% 29.52 in 10.0 mi SSE 17.3 mph - N/A   Mostly Cloudy
7:55 PM 73.4 °F - 62.6 °F 69% 29.45 in 10.0 mi SE 18.4 mph - N/A   Mostly Cloudy
8:55 PM 68.0 °F - 66.2 °F 94% 29.56 in 6.0 mi Variable 4.6 mph - N/A Rain , Thunderstorm Thunderstorms and Rain
9:55 PM 66.2 °F - 62.6 °F 88% 29.60 in 8.0 mi WNW 13.8 mph 20.7 mph N/A Rain Light Rain
10:55 PM 62.6 °F - 60.8 °F 94% 29.66 in 10.0 mi WSW 4.6 mph - N/A   Mostly Cloudy
11:55 PM 62.6 °F - 59.0 °F 88% 29.69 in 10.0 mi NW 6.9 mph - N/A   Mostly Cloudy